{"data":{"norad_id":63328,"intl_designator":"2025-057X","name":"STARLINK-33699","alt_names":[],"object_type":"PAYLOAD","status":"ACTIVE","operator":null,"country":"US","launch_date":"2025-03-18","launch_site_code":"AFETR","launch_vehicle":null,"mission":null,"orbit_class":"UNKNOWN","rcs_meters":null,"size_class":null,"mass_kg":null,"dimensions":null,"purposes":["comms"],"wikipedia_slug":null,"has_3d_model":false,"image_url":null,"decayed_at":null,"tle_current":{"epoch":"2026-05-25T04:03:21.868704Z","epoch_age_seconds":57137,"freshness":"FRESH","line1":"1 63328U 25057X   26145.16900311  .00013105  00000+0  48482-3 0  9998","line2":"2 63328  43.0004 311.1719 0001519 272.6475  87.4202 15.27584666 67520","mean_motion":15.27584666,"eccentricity":0.0001519,"inclination_deg":43.0004,"raan_deg":311.1719,"arg_perigee_deg":272.6475,"mean_anomaly_deg":87.4202,"bstar":0.00048482,"rev_number":6752,"period_min":94.266460776322,"perigee_km":481.99291234694,"apogee_km":484.07733643833,"semimajor_km":6861.1721243926,"source":"CELESTRAK","updated_at":"2026-05-25T13:38:19.960677Z"}}}